Showing default

ECHOSTAR 19, 41893

Orbit data source: Space-Track

ECHOSTAR 19, 41893 is a payload satellite owned by Echostar/HNS (US) in GEO that was launched on Sun, 18 Dec 2016 UTC via an ATLAS V 431 launch vehicle from the Air Force Eastern Test Range (AFETR). Payload-class satellites include a variety of spacecraft equipped with specific instruments for various scientific and technological missions. These include communications satellites like Starlink; space stations such as the ISS; scientific satellites like the Hubble; Earth observation satellites from companies like Planet Labs, Umbra, and HawkEye 360; GPS; miniature CubeSats for education and research; and military/defense satellites.

Loading next visibility...
Identifier
41893, 2016-079A
Orbit
GEO
Last TLE update
20 hours ago
Origin
Manufacturer
SS/Loral (MDA)
Mission
Operational Commercial Communications
Bus & Motor
SSL-1300E, R-4D
Mass
6,675 kg wet, ~4,500 kg dry
Launch date (UTC)
2016-12-18 (9 years ago)
Launch vehicle
ATLAS V 431
Launch site
Air Force Eastern Test Range (AFETR)
Object type
Payload
Rocket body
Debris
Shape & HBR
Box + 2 Pan, 26.1 m
Radar Cross Section
48.712 m², Large (>1 m²)

Expand to show TLE details & history

TLE from 20 hours ago
0 ECHOSTAR 19
1 41893U 16079A   25169.44450101 -.00000127  00000-0  00000-0 0  9991
2 41893   0.0187   9.6706 0001409  92.0744 228.1148  1.00271247 31050
Epoch: 2025-06-18T10:40Z
TLE epoch observation values (Epoch: 2025-06-18T10:40:04.887Z)
Latitude
-0.02035°
Longitude
-97.10298°
Altitude
35,790.21 km
Speed
3.074 km/s
True Right ascension
21h 59m 22s
True Declination
0° 01' 13"
Sunlit
Object was in daylight at epoch
Visualization orbit readout
Latitude
-0.0369°
Longitude
-150.83122°
Altitude
35,792.197 km
Speed
3.074 km/s
Apparent Right ascension
18h 28m 39s
Apparent Declination
-6° 15' 55"
Sunlit
Object is in daylight
Visualization observer readout
Local Sidereal Time
17:52:21
Azimuth
167.605° S
Elevation
43.065°
Doppler factor
1
Orbital elements
Apogee altitude
35,793.757 km
Perigee altitude
35,781.875 km
Semi-major axis
42,165.953 km
Eccentricity
0.00014
Inclination
0.0187°
RAAN
9.6706°
Arg. of periapsis
92.0744°
True anomaly
Unknown
Mean anomaly
228.1148°
Eccentric anomaly
Unknown
Mean motion
0.25067 °/min
Orbital period
1,436.16 mins
BSTAR
0
Loading historical data...
41893 neighbors
Loading maneuver chart data...
Loading SW <> Apogee altitude chart data...
Loading historical data...
Loading historical data...
Loading historical data...
Loading historical data...
Loading historical data...
Loading historical data...
Loading historical data...
Other satellites on launch #79 in the year 2016 (2016-12-18 UTC)

ECHOSTAR 19 Visibility forecast

Observer location: undefined°, undefined°

Span
Click to sort rows by Start time (UTC) header in descending order
Start Az.
Max El. time (UTC)
Max El. Az.
Max El.
End time (UTC)
End Az.
1440 mins2025-06-19 07:01:46.527Z167.609° S2025-06-19 19:12:46.527Z167.595° S34.359°2025-06-20 07:01:46.527Z167.613° S
|